Time,TemperatureF,DewpointF,PressureIn,WindDirection,WindDirectionDegrees,WindSpeedMPH,WindSpeedGustMPH,Humidity,HourlyPrecipIn,Conditions,Clouds,dailyrainin,SoftwareType,DateUTC
2013-02-10 00:00:00,43.0,36.0,28.68,NW,311,0.0,4.5,76,0.00,,---,0.00,VWS V14.01,2013-02-10 06:00:00,
2013-02-10 00:05:00,43.0,36.3,28.68,East,87,0.0,2.7,77,0.00,,---,0.00,VWS V14.01,2013-02-10 06:05:00,
2013-02-10 00:10:00,43.0,36.6,28.68,SE,129,4.9,5.4,78,0.00,,---,0.00,VWS V14.01,2013-02-10 06:10:00,
2013-02-10 00:16:00,43.0,36.6,28.68,SSW,212,3.6,5.8,78,0.00,,---,0.00,VWS V14.01,2013-02-10 06:16:00,
2013-02-10 00:21:00,43.0,37.2,28.68,West,276,0.0,4.9,80,0.00,,---,0.00,VWS V14.01,2013-02-10 06:21:00,
2013-02-10 00:27:00,43.0,37.9,28.68,WNW,297,4.0,4.0,82,0.00,,---,0.00,VWS V14.01,2013-02-10 06:27:00,
2013-02-10 00:33:00,43.0,37.9,28.68,WNW,300,0.0,5.8,82,0.00,,---,0.00,VWS V14.01,2013-02-10 06:33:00,
2013-02-10 00:38:00,43.2,38.4,28.68,NW,320,2.7,4.0,83,0.00,,---,0.00,VWS V14.01,2013-02-10 06:38:00,
2013-02-10 00:44:00,43.2,38.4,28.68,SSE,158,3.6,3.6,83,0.00,,---,0.00,VWS V14.01,2013-02-10 06:44:00,
2013-02-10 00:49:00,43.0,38.5,28.68,SSW,192,0.0,4.0,84,0.00,,---,0.00,VWS V14.01,2013-02-10 06:49:00,
2013-02-10 00:54:00,43.0,39.1,28.68,SE,138,2.7,2.7,86,0.00,,---,0.00,VWS V14.01,2013-02-10 06:54:00,
2013-02-10 00:59:00,43.0,39.1,28.68,East,98,0.0,0.0,86,0.00,,---,0.00,VWS V14.01,2013-02-10 06:59:00,
2013-02-10 01:05:00,43.0,39.4,28.65,SE,126,3.6,3.6,87,0.00,,---,0.00,VWS V14.01,2013-02-10 07:05:00,
2013-02-10 01:10:00,43.2,39.8,28.65,NW,315,2.7,2.7,88,0.00,,---,0.00,VWS V14.01,2013-02-10 07:10:00,
2013-02-10 01:16:00,43.2,39.8,28.65,ENE,65,5.8,5.8,88,0.00,,---,0.00,VWS V14.01,2013-02-10 07:16:00,
2013-02-10 01:22:00,43.3,40.3,28.65,South,172,9.6,9.6,89,0.00,,---,0.00,VWS V14.01,2013-02-10 07:22:00,
2013-02-10 01:27:00,43.3,40.3,28.65,SW,223,0.0,2.2,89,0.00,,---,0.00,VWS V14.01,2013-02-10 07:27:00,
2013-02-10 01:33:00,43.3,40.6,28.65,East,90,4.5,4.5,90,0.00,,---,0.00,VWS V14.01,2013-02-10 07:33:00,
2013-02-10 01:38:00,43.3,40.6,28.62,East,87,3.6,3.6,90,0.00,,---,0.00,VWS V14.01,2013-02-10 07:38:00,
2013-02-10 01:43:00,43.5,40.8,28.62,SSE,152,0.0,3.1,90,0.00,,---,0.00,VWS V14.01,2013-02-10 07:43:00,
2013-02-10 01:48:00,43.5,41.1,28.62,ESE,104,3.6,3.6,91,0.00,,---,0.00,VWS V14.01,2013-02-10 07:48:00,
2013-02-10 01:53:00,43.5,41.1,28.62,WSW,250,4.0,6.3,91,0.00,,---,0.00,VWS V14.01,2013-02-10 07:53:00,
2013-02-10 01:59:00,43.5,41.1,28.62,NW,320,0.0,4.9,91,0.00,,---,0.00,VWS V14.01,2013-02-10 07:59:00,
2013-02-10 02:04:00,43.5,41.1,28.62,ESE,118,0.0,3.6,91,0.00,,---,0.00,VWS V14.01,2013-02-10 08:04:00,
2013-02-10 02:09:00,43.7,41.5,28.62,NW,304,0.0,0.0,92,0.00,,---,0.00,VWS V14.01,2013-02-10 08:09:00,
2013-02-10 02:15:00,43.7,41.5,28.62,ESE,111,0.0,4.0,92,0.00,,---,0.00,VWS V14.01,2013-02-10 08:15:00,
2013-02-10 02:20:00,43.9,41.7,28.59,SSE,151,0.0,4.9,92,0.00,,---,0.00,VWS V14.01,2013-02-10 08:20:00,
2013-02-10 02:26:00,43.9,41.7,28.59,East,85,0.0,0.0,92,0.00,,---,0.00,VWS V14.01,2013-02-10 08:26:00,
2013-02-10 02:32:00,43.9,41.7,28.59,NW,305,4.0,5.8,92,0.00,,---,0.00,VWS V14.01,2013-02-10 08:32:00,
2013-02-10 02:37:00,43.9,41.7,28.59,East,83,4.9,4.9,92,0.00,,---,0.00,VWS V14.01,2013-02-10 08:37:00,
2013-02-10 02:43:00,43.7,41.5,28.59,West,275,0.0,0.0,92,0.00,,---,0.00,VWS V14.01,2013-02-10 08:43:00,
2013-02-10 02:48:00,43.9,41.7,28.59,SSE,156,2.2,3.6,92,0.00,,---,0.00,VWS V14.01,2013-02-10 08:48:00,
2013-02-10 02:53:00,44.1,41.9,28.59,ESE,104,3.6,4.9,92,0.00,,---,0.00,VWS V14.01,2013-02-10 08:53:00,
2013-02-10 02:58:00,44.1,41.9,28.59,ENE,71,4.0,4.0,92,0.00,,---,0.00,VWS V14.01,2013-02-10 08:58:00,
2013-02-10 03:04:00,44.1,41.9,28.59,ESE,116,0.0,4.0,92,0.00,,---,0.00,VWS V14.01,2013-02-10 09:04:00,
2013-02-10 03:09:00,44.1,41.9,28.56,East,87,0.0,3.6,92,0.00,,---,0.00,VWS V14.01,2013-02-10 09:09:00,
2013-02-10 03:15:00,44.1,41.9,28.56,East,86,0.0,0.0,92,0.00,,---,0.00,VWS V14.01,2013-02-10 09:15:00,
2013-02-10 03:20:00,43.9,42.0,28.56,SE,129,4.9,4.9,93,0.00,,---,0.00,VWS V14.01,2013-02-10 09:20:00,
2013-02-10 03:26:00,43.9,42.0,28.56,East,100,3.6,6.3,93,0.00,,---,0.00,VWS V14.01,2013-02-10 09:26:00,
2013-02-10 03:31:00,43.9,42.0,28.56,WSW,242,2.2,2.2,93,0.08,,---,0.08,VWS V14.01,2013-02-10 09:31:00,
2013-02-10 03:36:00,43.9,42.0,28.53,East,93,0.0,2.7,93,0.08,,---,0.08,VWS V14.01,2013-02-10 09:36:00,
2013-02-10 03:41:00,43.9,42.0,28.53,SE,127,3.6,3.6,93,0.08,,---,0.08,VWS V14.01,2013-02-10 09:41:00,
2013-02-10 03:47:00,44.1,42.5,28.53,SSE,165,0.0,0.0,94,0.08,,---,0.08,VWS V14.01,2013-02-10 09:47:00,
2013-02-10 03:52:00,44.1,42.5,28.50,SE,139,3.1,3.1,94,0.08,,---,0.08,VWS V14.01,2013-02-10 09:52:00,
2013-02-10 03:58:00,44.2,42.6,28.50,SE,137,0.0,0.0,94,0.08,,---,0.08,VWS V14.01,2013-02-10 09:58:00,
2013-02-10 04:04:00,44.4,43.1,28.50,SSE,147,5.4,5.8,95,0.08,,---,0.08,VWS V14.01,2013-02-10 10:04:00,
2013-02-10 04:09:00,44.6,43.0,28.50,NNW,338,0.0,8.3,94,0.08,,---,0.08,VWS V14.01,2013-02-10 10:09:00,
2013-02-10 04:14:00,45.1,43.8,28.50,WNW,303,3.6,3.6,95,0.08,,---,0.08,VWS V14.01,2013-02-10 10:14:00,
2013-02-10 04:20:00,45.3,44.2,28.50,SE,137,4.9,5.4,96,0.08,,---,0.08,VWS V14.01,2013-02-10 10:20:00,
2013-02-10 04:26:00,45.3,44.2,28.50,ENE,63,2.7,6.3,96,0.08,,---,0.08,VWS V14.01,2013-02-10 10:26:00,
2013-02-10 04:31:00,45.3,44.2,28.50,East,101,2.2,5.4,96,0.00,,---,0.08,VWS V14.01,2013-02-10 10:31:00,
2013-02-10 04:37:00,45.3,44.2,28.50,ESE,123,5.8,5.8,96,0.04,,---,0.12,VWS V14.01,2013-02-10 10:37:00,
2013-02-10 04:42:00,45.5,44.7,28.50,West,281,2.2,2.2,97,0.04,,---,0.12,VWS V14.01,2013-02-10 10:42:00,
2013-02-10 04:48:00,45.5,44.7,28.50,West,280,0.0,6.3,97,0.04,,---,0.12,VWS V14.01,2013-02-10 10:48:00,
2013-02-10 04:53:00,45.7,44.9,28.50,NNW,327,0.0,0.0,97,0.04,,---,0.12,VWS V14.01,2013-02-10 10:53:00,
2013-02-10 04:58:00,45.7,44.9,28.50,ESE,113,0.0,6.3,97,0.04,,---,0.12,VWS V14.01,2013-02-10 10:58:00,
2013-02-10 05:04:00,45.7,44.9,28.47,WSW,244,4.0,4.0,97,0.04,,---,0.12,VWS V14.01,2013-02-10 11:04:00,
2013-02-10 05:09:00,45.7,44.9,28.47,NNE,22,2.2,4.9,97,0.04,,---,0.12,VWS V14.01,2013-02-10 11:09:00,
2013-02-10 05:15:00,45.7,44.9,28.47,East,84,5.8,5.8,97,0.04,,---,0.12,VWS V14.01,2013-02-10 11:15:00,
2013-02-10 05:21:00,45.9,45.1,28.47,West,275,4.9,4.9,97,0.04,,---,0.12,VWS V14.01,2013-02-10 11:21:00,
2013-02-10 05:26:00,45.7,44.9,28.47,North,357,0.0,0.0,97,0.04,,---,0.12,VWS V14.01,2013-02-10 11:26:00,
2013-02-10 05:32:00,45.9,45.1,28.47,East,84,0.0,4.9,97,0.04,,---,0.12,VWS V14.01,2013-02-10 11:32:00,
2013-02-10 05:37:00,45.9,45.1,28.47,NW,309,5.8,5.8,97,0.00,,---,0.12,VWS V14.01,2013-02-10 11:37:00,
2013-02-10 05:43:00,46.0,45.2,28.47,NNE,25,0.0,3.6,97,0.00,,---,0.12,VWS V14.01,2013-02-10 11:43:00,
2013-02-10 05:49:00,46.0,45.2,28.47,SW,234,3.6,5.8,97,0.00,,---,0.12,VWS V14.01,2013-02-10 11:49:00,
2013-02-10 05:54:00,46.0,45.2,28.47,ESE,122,0.0,3.6,97,0.00,,---,0.12,VWS V14.01,2013-02-10 11:54:00,
2013-02-10 05:59:00,46.2,45.4,28.47,NNW,341,4.5,4.5,97,0.00,,---,0.12,VWS V14.01,2013-02-10 11:59:00,
2013-02-10 06:04:00,46.4,45.6,28.47,East,83,3.6,4.9,97,0.00,,---,0.12,VWS V14.01,2013-02-10 12:04:00,
2013-02-10 06:10:00,46.6,45.5,28.47,West,274,2.7,5.8,96,0.00,,---,0.12,VWS V14.01,2013-02-10 12:10:00,
2013-02-10 06:15:00,46.6,45.5,28.47,NW,320,4.9,7.2,96,0.00,,---,0.12,VWS V14.01,2013-02-10 12:15:00,
2013-02-10 06:20:00,46.8,45.7,28.44,SSW,198,4.9,5.4,96,0.00,,---,0.12,VWS V14.01,2013-02-10 12:20:00,
2013-02-10 06:25:00,46.9,45.9,28.44,SSW,211,2.7,4.0,96,0.00,,---,0.12,VWS V14.01,2013-02-10 12:25:00,
2013-02-10 06:31:00,47.1,46.0,28.44,SSW,207,0.0,0.0,96,0.00,,---,0.12,VWS V14.01,2013-02-10 12:31:00,
2013-02-10 06:36:00,47.1,45.8,28.44,NE,45,6.3,6.7,95,0.00,,---,0.12,VWS V14.01,2013-02-10 12:36:00,
2013-02-10 06:41:00,47.1,45.5,28.44,SSW,204,6.3,6.3,94,0.00,,---,0.12,VWS V14.01,2013-02-10 12:41:00,
2013-02-10 06:46:00,47.1,45.5,28.44,South,185,3.1,6.3,94,0.00,,---,0.12,VWS V14.01,2013-02-10 12:46:00,
2013-02-10 06:51:00,47.3,44.8,28.44,SW,217,8.3,8.3,91,0.00,,---,0.12,VWS V14.01,2013-02-10 12:51:00,
2013-02-10 06:57:00,47.5,43.8,28.44,NNW,334,3.6,3.6,87,0.00,,---,0.12,VWS V14.01,2013-02-10 12:57:00,
2013-02-10 07:03:00,47.3,43.0,28.44,WNW,296,4.0,4.0,85,0.00,,---,0.12,VWS V14.01,2013-02-10 13:03:00,
2013-02-10 07:08:00,47.3,42.4,28.44,SSW,211,4.0,4.0,83,0.00,,---,0.12,VWS V14.01,2013-02-10 13:08:00,
2013-02-10 07:13:00,47.3,42.4,28.44,ENE,57,4.9,4.9,83,0.00,,---,0.12,VWS V14.01,2013-02-10 13:13:00,
2013-02-10 07:18:00,47.1,41.6,28.44,West,279,5.4,5.4,81,0.00,,---,0.12,VWS V14.01,2013-02-10 13:18:00,
2013-02-10 07:24:00,47.1,41.3,28.44,West,260,2.2,8.7,80,0.00,,---,0.12,VWS V14.01,2013-02-10 13:24:00,
2013-02-10 07:29:00,46.8,40.6,28.44,South,188,2.7,2.7,79,0.00,,---,0.12,VWS V14.01,2013-02-10 13:29:00,
2013-02-10 07:35:00,46.8,40.6,28.44,ESE,116,3.6,6.3,79,0.00,,---,0.12,VWS V14.01,2013-02-10 13:35:00,
2013-02-10 07:40:00,46.4,40.2,28.44,SW,223,5.8,5.8,79,0.00,,---,0.12,VWS V14.01,2013-02-10 13:40:00,
2013-02-10 07:46:00,46.4,40.2,28.44,West,270,3.6,3.6,79,0.00,,---,0.12,VWS V14.01,2013-02-10 13:46:00,
2013-02-10 07:52:00,46.2,40.7,28.44,WSW,244,2.2,4.9,81,0.00,,---,0.12,VWS V14.01,2013-02-10 13:52:00,
2013-02-10 07:57:00,46.2,40.7,28.44,South,172,0.0,2.7,81,0.00,,---,0.12,VWS V14.01,2013-02-10 13:57:00,
2013-02-10 08:02:00,46.2,40.7,28.44,SSW,194,4.5,5.4,81,0.00,,---,0.12,VWS V14.01,2013-02-10 14:02:00,
2013-02-10 08:07:00,46.4,40.9,28.44,ESE,111,2.2,5.4,81,0.00,,---,0.12,VWS V14.01,2013-02-10 14:07:00,
2013-02-10 08:13:00,46.6,40.1,28.44,NW,320,4.9,4.9,78,0.00,,---,0.12,VWS V14.01,2013-02-10 14:13:00,
2013-02-10 08:18:00,47.1,40.0,28.44,WSW,242,8.3,8.3,76,0.00,,---,0.12,VWS V14.01,2013-02-10 14:18:00,
2013-02-10 08:23:00,47.1,40.0,28.44,NW,312,3.1,4.0,76,0.00,,---,0.12,VWS V14.01,2013-02-10 14:23:00,
2013-02-10 08:28:00,48.0,38.7,28.44,SSW,199,3.1,7.2,70,0.00,,---,0.12,VWS V14.01,2013-02-10 14:28:00,
2013-02-10 08:34:00,48.4,36.0,28.44,WSW,247,9.6,9.6,62,0.00,,---,0.12,VWS V14.01,2013-02-10 14:34:00,
2013-02-10 08:39:00,48.7,36.7,28.44,WSW,253,3.1,4.0,63,0.00,,---,0.12,VWS V14.01,2013-02-10 14:39:00,
2013-02-10 08:45:00,48.7,33.8,28.44,SSW,205,2.2,6.3,56,0.00,,---,0.12,VWS V14.01,2013-02-10 14:45:00,
2013-02-10 08:51:00,49.1,31.3,28.44,West,268,3.1,8.1,50,0.00,,---,0.12,VWS V14.01,2013-02-10 14:51:00,
2013-02-10 08:56:00,49.3,31.0,28.44,West,259,4.9,5.4,49,0.00,,---,0.12,VWS V14.01,2013-02-10 14:56:00,
2013-02-10 09:02:00,49.5,31.1,28.44,South,180,8.1,8.1,49,0.00,,---,0.12,VWS V14.01,2013-02-10 15:02:00,
2013-02-10 09:07:00,49.5,28.5,28.44,SW,230,4.0,8.1,44,0.00,,---,0.12,VWS V14.01,2013-02-10 15:07:00,
2013-02-10 09:12:00,48.7,26.1,28.44,West,276,3.6,6.3,41,0.00,,---,0.12,VWS V14.01,2013-02-10 15:12:00,
2013-02-10 09:17:00,48.6,26.0,28.44,South,179,2.7,8.3,41,0.00,,---,0.12,VWS V14.01,2013-02-10 15:17:00,
2013-02-10 09:23:00,48.7,26.7,28.44,South,182,4.0,8.3,42,0.00,,---,0.12,VWS V14.01,2013-02-10 15:23:00,
2013-02-10 09:28:00,48.7,24.9,28.44,NW,322,3.6,6.3,39,0.00,,---,0.12,VWS V14.01,2013-02-10 15:28:00,
2013-02-10 09:34:00,48.4,24.6,28.44,SE,135,3.1,8.7,39,0.00,,---,0.12,VWS V14.01,2013-02-10 15:34:00,
2013-02-10 09:40:00,48.4,24.6,28.44,ESE,111,4.5,5.8,39,0.00,,---,0.12,VWS V14.01,2013-02-10 15:40:00,
2013-02-10 09:45:00,48.0,24.3,28.44,SSE,152,2.7,6.3,39,0.00,,---,0.12,VWS V14.01,2013-02-10 15:45:00,
2013-02-10 09:51:00,48.2,23.8,28.44,SSW,194,2.7,5.8,38,0.00,,---,0.12,VWS V14.01,2013-02-10 15:51:00,
2013-02-10 09:56:00,48.2,24.4,28.44,SSW,213,0.0,4.5,39,0.00,,---,0.12,VWS V14.01,2013-02-10 15:56:00,
2013-02-10 10:01:00,48.6,24.1,28.44,East,92,6.3,6.3,38,0.00,,---,0.12,VWS V14.01,2013-02-10 16:01:00,
2013-02-10 10:06:00,48.6,24.1,28.44,East,84,4.9,12.8,38,0.00,,---,0.12,VWS V14.01,2013-02-10 16:06:00,
2013-02-10 10:11:00,48.2,23.2,28.44,NNW,346,6.3,7.6,37,0.00,,---,0.12,VWS V14.01,2013-02-10 16:11:00,
2013-02-10 10:16:00,48.2,23.2,28.44,SSW,200,12.3,12.3,37,0.00,,---,0.12,VWS V14.01,2013-02-10 16:16:00,
2013-02-10 10:22:00,48.6,23.5,28.44,SSW,195,5.4,5.4,37,0.00,,---,0.12,VWS V14.01,2013-02-10 16:22:00,
2013-02-10 10:27:00,48.6,23.5,28.44,SE,137,3.1,10.5,37,0.00,,---,0.12,VWS V14.01,2013-02-10 16:27:00,
2013-02-10 10:33:00,48.9,23.8,28.44,ESE,122,5.8,5.8,37,0.00,,---,0.12,VWS V14.01,2013-02-10 16:33:00,
2013-02-10 10:38:00,49.3,24.8,28.44,SSE,154,2.7,7.6,38,0.00,,---,0.12,VWS V14.01,2013-02-10 16:38:00,
2013-02-10 10:44:00,49.3,24.1,28.44,SSE,154,2.7,5.8,37,0.00,,---,0.12,VWS V14.01,2013-02-10 16:44:00,
2013-02-10 10:50:00,49.8,24.6,28.44,NNE,15,4.9,12.3,37,0.00,,---,0.12,VWS V14.01,2013-02-10 16:50:00,
2013-02-10 10:55:00,50.9,24.9,28.44,WSW,257,3.1,7.6,36,0.00,,---,0.12,VWS V14.01,2013-02-10 16:55:00,
2013-02-10 11:01:00,51.3,25.2,28.44,South,182,4.0,5.8,36,0.00,,---,0.12,VWS V14.01,2013-02-10 17:01:00,
2013-02-10 11:06:00,51.1,25.1,28.44,South,182,5.4,10.1,36,0.00,,---,0.12,VWS V14.01,2013-02-10 17:06:00,
2013-02-10 11:12:00,52.0,25.9,28.44,NNW,343,5.8,5.8,36,0.00,,---,0.12,VWS V14.01,2013-02-10 17:12:00,
2013-02-10 11:17:00,53.1,24.7,28.44,SSE,167,0.0,3.6,33,0.00,,---,0.12,VWS V14.01,2013-02-10 17:17:00,
2013-02-10 11:23:00,52.9,23.9,28.44,SW,225,7.2,7.2,32,0.00,,---,0.12,VWS V14.01,2013-02-10 17:23:00,
2013-02-10 11:29:00,52.2,23.2,28.44,North,357,4.0,4.0,32,0.00,,---,0.12,VWS V14.01,2013-02-10 17:29:00,
2013-02-10 11:34:00,52.2,23.2,28.47,SSW,193,2.2,2.2,32,0.00,,---,0.12,VWS V14.01,2013-02-10 17:34:00,
2013-02-10 11:40:00,50.5,21.8,28.47,SE,127,5.8,13.6,32,0.00,,---,0.12,VWS V14.01,2013-02-10 17:40:00,
2013-02-10 11:45:00,49.8,21.2,28.47,SE,133,3.1,4.9,32,0.00,,---,0.12,VWS V14.01,2013-02-10 17:45:00,
2013-02-10 11:50:00,50.0,21.3,28.47,ESE,110,6.3,6.3,32,0.00,,---,0.12,VWS V14.01,2013-02-10 17:50:00,
2013-02-10 11:55:00,50.2,21.5,28.47,East,84,3.1,3.6,32,0.00,,---,0.12,VWS V14.01,2013-02-10 17:55:00,
2013-02-10 12:01:00,50.5,21.8,28.47,SW,227,5.8,7.2,32,0.00,,---,0.12,VWS V14.01,2013-02-10 18:01:00,
2013-02-10 12:06:00,50.7,21.2,28.47,SW,218,6.3,8.3,31,0.00,,---,0.12,VWS V14.01,2013-02-10 18:06:00,
2013-02-10 12:12:00,50.4,21.6,28.47,WNW,291,10.5,10.5,32,0.00,,---,0.12,VWS V14.01,2013-02-10 18:12:00,
2013-02-10 12:17:00,50.2,21.5,28.47,NE,45,3.6,3.6,32,0.00,,---,0.12,VWS V14.01,2013-02-10 18:17:00,
2013-02-10 12:22:00,50.0,20.6,28.47,SW,234,3.1,9.6,31,0.00,,---,0.12,VWS V14.01,2013-02-10 18:22:00,
2013-02-10 12:28:00,49.3,20.7,28.47,SSW,193,3.6,4.0,32,0.00,,---,0.12,VWS V14.01,2013-02-10 18:28:00,
2013-02-10 12:33:00,49.6,20.3,28.47,NW,325,8.3,8.3,31,0.00,,---,0.12,VWS V14.01,2013-02-10 18:33:00,
2013-02-10 12:39:00,50.0,19.8,28.47,ESE,114,4.0,11.0,30,0.00,,---,0.12,VWS V14.01,2013-02-10 18:39:00,
2013-02-10 12:44:00,49.1,19.8,28.47,North,357,5.8,10.5,31,0.00,,---,0.12,VWS V14.01,2013-02-10 18:44:00,
2013-02-10 12:50:00,48.7,19.5,28.47,South,169,5.8,5.8,31,0.00,,---,0.12,VWS V14.01,2013-02-10 18:50:00,
2013-02-10 12:56:00,49.1,19.8,28.47,SE,129,4.9,6.3,31,0.00,,---,0.12,VWS V14.01,2013-02-10 18:56:00,
2013-02-10 13:01:00,48.6,19.3,28.47,WSW,247,5.4,8.3,31,0.00,,---,0.12,VWS V14.01,2013-02-10 19:01:00,
2013-02-10 13:06:00,48.7,19.5,28.47,East,101,4.9,4.9,31,0.00,,---,0.12,VWS V14.01,2013-02-10 19:06:00,
2013-02-10 13:11:00,49.6,20.3,28.47,SE,136,6.3,8.3,31,0.00,,---,0.12,VWS V14.01,2013-02-10 19:11:00,
2013-02-10 13:17:00,51.4,21.1,28.47,West,263,5.8,6.3,30,0.00,,---,0.12,VWS V14.01,2013-02-10 19:17:00,
2013-02-10 13:22:00,51.8,20.6,28.47,NNE,18,6.3,10.1,29,0.00,,---,0.12,VWS V14.01,2013-02-10 19:22:00,
2013-02-10 13:28:00,51.8,20.6,28.47,ENE,66,2.7,4.0,29,0.00,,---,0.12,VWS V14.01,2013-02-10 19:28:00,
2013-02-10 13:33:00,51.8,20.6,28.47,East,82,3.1,7.6,29,0.00,,---,0.12,VWS V14.01,2013-02-10 19:33:00,
2013-02-10 13:39:00,51.6,20.4,28.47,East,86,5.8,5.8,29,0.00,,---,0.12,VWS V14.01,2013-02-10 19:39:00,
2013-02-10 13:44:00,51.6,20.4,28.47,SW,216,6.7,9.2,29,0.00,,---,0.12,VWS V14.01,2013-02-10 19:44:00,
2013-02-10 13:50:00,51.6,20.4,28.50,NE,48,2.7,9.2,29,0.00,,---,0.12,VWS V14.01,2013-02-10 19:50:00,
2013-02-10 13:56:00,52.0,20.7,28.50,NNE,29,4.9,5.4,29,0.00,,---,0.12,VWS V14.01,2013-02-10 19:56:00,
2013-02-10 14:01:00,52.3,21.0,28.50,ENE,63,4.9,5.8,29,0.00,,---,0.12,VWS V14.01,2013-02-10 20:01:00,
2013-02-10 14:06:00,51.6,20.4,28.50,ENE,73,6.7,6.7,29,0.00,,---,0.12,VWS V14.01,2013-02-10 20:06:00,
2013-02-10 14:11:00,51.6,20.4,28.50,SE,142,4.9,7.6,29,0.00,,---,0.12,VWS V14.01,2013-02-10 20:11:00,
2013-02-10 14:17:00,51.4,20.3,28.50,North,357,15.0,15.0,29,0.00,,---,0.12,VWS V14.01,2013-02-10 20:17:00,
2013-02-10 14:22:00,50.9,19.8,28.50,ENE,76,3.1,9.2,29,0.00,,---,0.12,VWS V14.01,2013-02-10 20:22:00,
2013-02-10 14:28:00,50.4,20.1,28.50,NNE,23,2.7,5.4,30,0.00,,---,0.12,VWS V14.01,2013-02-10 20:28:00,
2013-02-10 14:33:00,50.4,19.3,28.53,North,357,4.0,5.8,29,0.00,,---,0.12,VWS V14.01,2013-02-10 20:33:00,
2013-02-10 14:39:00,49.5,19.3,28.53,ESE,116,3.1,4.9,30,0.00,,---,0.12,VWS V14.01,2013-02-10 20:39:00,
2013-02-10 14:44:00,49.5,19.3,28.53,ENE,59,5.4,5.8,30,0.00,,---,0.12,VWS V14.01,2013-02-10 20:44:00,
2013-02-10 14:50:00,48.6,18.5,28.53,ENE,78,4.0,8.1,30,0.00,,---,0.12,VWS V14.01,2013-02-10 20:50:00,
2013-02-10 14:55:00,48.0,18.8,28.53,North,3,0.0,2.7,31,0.00,,---,0.12,VWS V14.01,2013-02-10 20:55:00,
2013-02-10 15:00:00,47.8,18.7,28.53,North,5,4.9,4.9,31,0.00,,---,0.12,VWS V14.01,2013-02-10 21:00:00,
2013-02-10 15:06:00,48.0,18.8,28.53,West,268,5.8,5.8,31,0.00,,---,0.12,VWS V14.01,2013-02-10 21:06:00,
2013-02-10 15:11:00,47.8,18.7,28.53,SE,138,8.1,8.1,31,0.00,,---,0.12,VWS V14.01,2013-02-10 21:11:00,
2013-02-10 15:17:00,47.7,17.8,28.56,East,82,2.7,4.0,30,0.00,,---,0.12,VWS V14.01,2013-02-10 21:17:00,
2013-02-10 15:22:00,47.7,17.8,28.56,SE,143,4.9,4.9,30,0.00,,---,0.12,VWS V14.01,2013-02-10 21:22:00,
2013-02-10 15:28:00,47.3,17.5,28.56,East,95,5.4,7.6,30,0.00,,---,0.12,VWS V14.01,2013-02-10 21:28:00,
2013-02-10 15:33:00,47.3,18.2,28.56,SSW,195,2.7,4.9,31,0.00,,---,0.12,VWS V14.01,2013-02-10 21:33:00,
2013-02-10 15:39:00,46.8,17.7,28.56,SE,140,4.0,6.3,31,0.00,,---,0.12,VWS V14.01,2013-02-10 21:39:00,
2013-02-10 15:45:00,46.4,17.4,28.56,SSE,156,3.6,3.6,31,0.00,,---,0.12,VWS V14.01,2013-02-10 21:45:00,
2013-02-10 15:50:00,46.0,17.1,28.56,North,11,3.6,7.6,31,0.00,,---,0.12,VWS V14.01,2013-02-10 21:50:00,
2013-02-10 15:56:00,46.2,17.3,28.56,ESE,112,2.7,8.1,31,0.00,,---,0.12,VWS V14.01,2013-02-10 21:56:00,
2013-02-10 16:02:00,46.2,17.3,28.59,WNW,282,8.1,12.3,31,0.00,,---,0.12,VWS V14.01,2013-02-10 22:02:00,
2013-02-10 16:08:00,46.2,17.3,28.59,NNE,30,4.9,6.3,31,0.00,,---,0.12,VWS V14.01,2013-02-10 22:08:00,
2013-02-10 16:14:00,46.2,17.3,28.59,WNW,297,10.1,10.1,31,0.00,,---,0.12,VWS V14.01,2013-02-10 22:14:00,
2013-02-10 16:20:00,45.9,17.0,28.59,ESE,109,3.6,8.3,31,0.00,,---,0.12,VWS V14.01,2013-02-10 22:20:00,
2013-02-10 16:25:00,45.5,16.6,28.59,WNW,283,0.0,3.6,31,0.00,,---,0.12,VWS V14.01,2013-02-10 22:25:00,
2013-02-10 16:30:00,45.1,16.3,28.59,ENE,63,5.4,7.2,31,0.00,,---,0.12,VWS V14.01,2013-02-10 22:30:00,
2013-02-10 16:35:00,45.0,16.9,28.59,ENE,73,6.3,8.3,32,0.00,,---,0.12,VWS V14.01,2013-02-10 22:35:00,
2013-02-10 16:41:00,44.6,16.6,28.59,SSE,163,5.8,5.8,32,0.00,,---,0.12,VWS V14.01,2013-02-10 22:41:00,
2013-02-10 16:46:00,44.2,17.0,28.59,ENE,78,3.1,6.3,33,0.00,,---,0.12,VWS V14.01,2013-02-10 22:46:00,
2013-02-10 16:52:00,43.9,16.7,28.62,NNE,15,7.6,10.5,33,0.00,,---,0.12,VWS V14.01,2013-02-10 22:52:00,
2013-02-10 16:58:00,43.7,16.5,28.62,SW,232,5.8,8.3,33,0.00,,---,0.12,VWS V14.01,2013-02-10 22:58:00,
2013-02-10 17:04:00,43.3,16.9,28.62,South,180,2.7,2.7,34,0.00,,---,0.12,VWS V14.01,2013-02-10 23:04:00,
2013-02-10 17:10:00,43.2,16.7,28.62,SSW,194,5.4,6.3,34,0.00,,---,0.12,VWS V14.01,2013-02-10 23:10:00,
2013-02-10 17:16:00,42.8,16.4,28.62,SE,141,5.4,8.7,34,0.00,,---,0.12,VWS V14.01,2013-02-10 23:16:00,
2013-02-10 17:21:00,42.6,16.2,28.65,WSW,244,3.6,4.0,34,0.00,,---,0.12,VWS V14.01,2013-02-10 23:21:00,
2013-02-10 17:26:00,42.4,16.7,28.65,ESE,120,7.6,7.6,35,0.00,,---,0.12,VWS V14.01,2013-02-10 23:26:00,
2013-02-10 17:32:00,42.4,16.7,28.65,NE,54,0.0,3.6,35,0.00,,---,0.12,VWS V14.01,2013-02-10 23:32:00,
2013-02-10 17:38:00,42.3,16.6,28.65,SSE,150,4.9,6.7,35,0.00,,---,0.12,VWS V14.01,2013-02-10 23:38:00,
2013-02-10 17:43:00,41.9,16.3,28.65,SSW,192,8.7,8.7,35,0.00,,---,0.12,VWS V14.01,2013-02-10 23:43:00,
2013-02-10 17:48:00,41.5,16.6,28.68,East,93,5.8,10.1,36,0.00,,---,0.12,VWS V14.01,2013-02-10 23:48:00,
2013-02-10 17:54:00,41.2,16.3,28.68,NE,34,4.9,4.9,36,0.00,,---,0.12,VWS V14.01,2013-02-10 23:54:00,
2013-02-10 17:59:00,41.2,16.3,28.68,SSE,154,2.7,7.2,36,0.00,,---,0.12,VWS V14.01,2013-02-10 23:59:00,
2013-02-10 18:05:00,41.0,16.7,28.68,SSE,162,8.7,8.7,37,0.00,,---,0.12,VWS V14.01,2013-02-11 00:05:00,
2013-02-10 18:10:00,41.0,16.7,28.68,SE,140,3.6,5.8,37,0.00,,---,0.12,VWS V14.01,2013-02-11 00:10:00,
2013-02-10 18:16:00,41.0,17.4,28.68,NE,52,2.2,6.3,38,0.00,,---,0.12,VWS V14.01,2013-02-11 00:16:00,
2013-02-10 18:22:00,40.8,17.2,28.68,ESE,121,3.6,3.6,38,0.00,,---,0.12,VWS V14.01,2013-02-11 00:22:00,
2013-02-10 18:28:00,40.8,16.6,28.68,South,173,10.1,10.1,37,0.00,,---,0.12,VWS V14.01,2013-02-11 00:28:00,
2013-02-10 18:34:00,40.6,16.4,28.68,SSW,207,4.0,4.9,37,0.00,,---,0.12,VWS V14.01,2013-02-11 00:34:00,
2013-02-10 18:40:00,40.5,15.6,28.71,SSE,151,8.1,8.1,36,0.00,,---,0.12,VWS V14.01,2013-02-11 00:40:00,
2013-02-10 18:45:00,40.5,15.6,28.71,ESE,104,5.8,6.3,36,0.00,,---,0.12,VWS V14.01,2013-02-11 00:45:00,
2013-02-10 18:51:00,40.1,15.3,28.71,ENE,75,5.4,7.6,36,0.00,,---,0.12,VWS V14.01,2013-02-11 00:51:00,
2013-02-10 18:56:00,39.6,15.4,28.71,SSE,158,2.7,3.1,37,0.00,,---,0.12,VWS V14.01,2013-02-11 00:56:00,
2013-02-10 19:02:00,39.2,15.7,28.74,North,350,4.0,8.1,38,0.00,,---,0.12,VWS V14.01,2013-02-11 01:02:00,
2013-02-10 19:07:00,39.2,15.7,28.74,North,3,3.1,3.1,38,0.00,,---,0.12,VWS V14.01,2013-02-11 01:07:00,
2013-02-10 19:13:00,39.0,16.2,28.74,NNE,26,0.0,4.9,39,0.00,,---,0.12,VWS V14.01,2013-02-11 01:13:00,
2013-02-10 19:19:00,39.2,16.3,28.74,East,95,3.1,3.6,39,0.00,,---,0.12,VWS V14.01,2013-02-11 01:19:00,
2013-02-10 19:24:00,39.0,16.2,28.74,NNE,17,3.1,3.1,39,0.00,,---,0.12,VWS V14.01,2013-02-11 01:24:00,
2013-02-10 19:30:00,38.8,16.0,28.74,SSE,162,2.7,5.4,39,0.00,,---,0.12,VWS V14.01,2013-02-11 01:30:00,
2013-02-10 19:36:00,38.8,16.0,28.77,NE,39,0.0,5.8,39,0.00,,---,0.12,VWS V14.01,2013-02-11 01:36:00,
2013-02-10 19:41:00,38.7,15.9,28.77,East,96,3.6,3.6,39,0.00,,---,0.12,VWS V14.01,2013-02-11 01:41:00,
2013-02-10 19:46:00,38.5,15.7,28.77,NNW,341,3.1,3.1,39,0.00,,---,0.12,VWS V14.01,2013-02-11 01:46:00,
2013-02-10 19:52:00,38.5,15.7,28.77,NNW,344,2.7,2.7,39,0.00,,---,0.12,VWS V14.01,2013-02-11 01:52:00,
2013-02-10 19:57:00,38.3,15.5,28.77,SSW,205,5.4,5.4,39,0.00,,---,0.12,VWS V14.01,2013-02-11 01:57:00,
2013-02-10 20:02:00,38.1,15.4,28.77,East,91,2.7,3.1,39,0.00,,---,0.12,VWS V14.01,2013-02-11 02:02:00,
2013-02-10 20:07:00,37.9,15.2,28.77,SE,129,2.7,8.3,39,0.00,,---,0.12,VWS V14.01,2013-02-11 02:07:00,
2013-02-10 20:12:00,37.8,15.0,28.77,ESE,120,4.5,7.6,39,0.00,,---,0.12,VWS V14.01,2013-02-11 02:12:00,
2013-02-10 20:18:00,37.6,14.9,28.77,SE,130,4.0,4.0,39,0.00,,---,0.12,VWS V14.01,2013-02-11 02:18:00,
2013-02-10 20:23:00,37.2,14.6,28.77,SE,134,3.6,5.8,39,0.00,,---,0.12,VWS V14.01,2013-02-11 02:23:00,
2013-02-10 20:29:00,37.0,14.4,28.77,ENE,71,0.0,5.8,39,0.00,,---,0.12,VWS V14.01,2013-02-11 02:29:00,
2013-02-10 20:35:00,36.9,14.2,28.79,NW,324,3.6,4.9,39,0.00,,---,0.12,VWS V14.01,2013-02-11 02:35:00,
2013-02-10 20:40:00,37.2,14.6,28.79,NNE,22,0.0,0.0,39,0.00,,---,0.12,VWS V14.01,2013-02-11 02:40:00,
2013-02-10 20:46:00,37.0,15.0,28.79,SE,130,0.0,4.0,40,0.00,,---,0.12,VWS V14.01,2013-02-11 02:46:00,
2013-02-10 20:51:00,36.9,14.8,28.82,SE,132,4.0,4.0,40,0.00,,---,0.12,VWS V14.01,2013-02-11 02:51:00,
2013-02-10 20:56:00,37.0,15.0,28.82,SSW,204,7.2,7.2,40,0.00,,---,0.12,VWS V14.01,2013-02-11 02:56:00,
2013-02-10 21:01:00,37.0,15.0,28.82,ESE,117,3.6,4.9,40,0.00,,---,0.12,VWS V14.01,2013-02-11 03:01:00,
2013-02-10 21:07:00,37.0,15.0,28.82,NE,44,2.7,3.1,40,0.00,,---,0.12,VWS V14.01,2013-02-11 03:07:00,
2013-02-10 21:12:00,36.9,14.8,28.82,NW,314,5.4,5.8,40,0.00,,---,0.12,VWS V14.01,2013-02-11 03:12:00,
2013-02-10 21:18:00,36.9,14.8,28.82,SW,229,0.0,2.2,40,0.00,,---,0.12,VWS V14.01,2013-02-11 03:18:00,
2013-02-10 21:23:00,36.9,14.8,28.82,ESE,102,0.0,3.6,40,0.00,,---,0.12,VWS V14.01,2013-02-11 03:23:00,
2013-02-10 21:29:00,37.0,15.0,28.82,ENE,60,5.4,5.4,40,0.00,,---,0.12,VWS V14.01,2013-02-11 03:29:00,
2013-02-10 21:34:00,37.0,15.0,28.82,SSW,198,2.7,2.7,40,0.00,,---,0.12,VWS V14.01,2013-02-11 03:34:00,
2013-02-10 21:39:00,37.0,15.0,28.82,SW,217,2.2,3.6,40,0.00,,---,0.12,VWS V14.01,2013-02-11 03:39:00,
2013-02-10 21:45:00,37.0,15.0,28.82,NNE,33,4.0,4.0,40,0.00,,---,0.12,VWS V14.01,2013-02-11 03:45:00,
2013-02-10 21:50:00,36.7,14.6,28.85,WSW,249,4.0,4.0,40,0.00,,---,0.12,VWS V14.01,2013-02-11 03:50:00,
2013-02-10 21:56:00,36.7,14.6,28.85,NE,52,0.0,2.7,40,0.00,,---,0.12,VWS V14.01,2013-02-11 03:56:00,
2013-02-10 22:01:00,36.7,14.6,28.85,South,173,0.0,0.0,40,0.00,,---,0.12,VWS V14.01,2013-02-11 04:01:00,
2013-02-10 22:06:00,37.2,15.1,28.85,NNE,26,0.0,2.2,40,0.00,,---,0.12,VWS V14.01,2013-02-11 04:06:00,
2013-02-10 22:11:00,37.2,15.1,28.85,SSE,149,0.0,0.0,40,0.00,,---,0.12,VWS V14.01,2013-02-11 04:11:00,
2013-02-10 22:17:00,37.8,15.0,28.85,NE,52,0.0,4.0,39,0.00,,---,0.12,VWS V14.01,2013-02-11 04:17:00,
2013-02-10 22:22:00,37.8,15.0,28.85,ENE,76,0.0,0.0,39,0.00,,---,0.12,VWS V14.01,2013-02-11 04:22:00,
2013-02-10 22:28:00,37.6,14.9,28.85,North,357,0.0,0.0,39,0.00,,---,0.12,VWS V14.01,2013-02-11 04:28:00,
2013-02-10 22:34:00,37.9,15.8,28.85,ENE,72,0.0,0.0,40,0.00,,---,0.12,VWS V14.01,2013-02-11 04:34:00,
2013-02-10 22:39:00,38.1,15.9,28.85,SE,129,0.0,0.0,40,0.00,,---,0.12,VWS V14.01,2013-02-11 04:39:00,
2013-02-10 22:45:00,38.1,15.9,28.85,ESE,120,0.0,0.0,40,0.00,,---,0.12,VWS V14.01,2013-02-11 04:45:00,
2013-02-10 22:50:00,37.9,15.8,28.85,South,190,0.0,3.6,40,0.00,,---,0.12,VWS V14.01,2013-02-11 04:50:00,
2013-02-10 22:55:00,37.8,15.6,28.85,SW,222,0.0,2.7,40,0.00,,---,0.12,VWS V14.01,2013-02-11 04:55:00,
2013-02-10 23:00:00,37.6,16.0,28.85,WNW,284,3.1,3.1,41,0.00,,---,0.12,VWS V14.01,2013-02-11 05:00:00,
2013-02-10 23:01:00,37.6,16.0,28.85,ENE,73,6.3,6.3,41,0.00,,---,0.12,VWS V14.01,2013-02-11 05:01:00,
2013-02-10 23:02:00,37.6,16.0,28.85,South,172,2.7,6.3,41,0.00,,---,0.12,VWS V14.01,2013-02-11 05:02:00,
2013-02-10 23:05:00,37.6,16.0,28.88,SW,224,6.7,6.7,41,0.00,,---,0.12,VWS V14.01,2013-02-11 05:05:00,
2013-02-10 23:10:00,37.6,16.0,28.88,ENE,59,0.0,5.4,41,0.00,,---,0.12,VWS V14.01,2013-02-11 05:10:00,
2013-02-10 23:16:00,37.4,15.9,28.88,NE,42,2.7,5.8,41,0.00,,---,0.12,VWS V14.01,2013-02-11 05:16:00,
2013-02-10 23:21:00,37.4,15.3,28.88,NNE,19,0.0,2.7,40,0.00,,---,0.12,VWS V14.01,2013-02-11 05:21:00,
2013-02-10 23:27:00,37.4,15.3,28.88,NNE,30,3.6,3.6,40,0.00,,---,0.12,VWS V14.01,2013-02-11 05:27:00,
2013-02-10 23:32:00,37.4,15.3,28.88,SE,138,0.0,3.1,40,0.00,,---,0.12,VWS V14.01,2013-02-11 05:32:00,
2013-02-10 23:37:00,37.2,15.7,28.88,NE,51,0.0,0.0,41,0.00,,---,0.12,VWS V14.01,2013-02-11 05:37:00,
2013-02-10 23:43:00,36.9,15.4,28.88,SSW,206,0.0,0.0,41,0.00,,---,0.12,VWS V14.01,2013-02-11 05:43:00,
2013-02-10 23:49:00,36.7,15.2,28.91,NE,35,0.0,0.0,41,0.00,,---,0.12,VWS V14.01,2013-02-11 05:49:00,
2013-02-10 23:55:00,36.5,15.6,28.91,SSW,202,0.0,0.0,42,0.00,,---,0.12,VWS V14.01,2013-02-11 05:55:00,